Regional Weather Roundup
Issued by NWS

Home | Current Version | Previous Version | Text Only | Print | Product List | Glossary On
Versions: 1 2 3 4 5 6 7 8 9 10 11 12 13 14 15 16 17 18 19 20 21 22 23 24 25 26 27 28 29 30 31 32 33 34 35 36 37 38 39 40 41 42 43 44 45 46 47 48 49 50
000
ASCA44 KEWX 260020
RWRMX

LATIN AMERICA AND CARIBBEAN REGIONAL WEATHER ROUNDUP
NATIONAL WEATHER SERVICE AUSTIN/SAN ANTONIO TX
600 PM CST SUN JAN 25 2015

NOTE: "FAIR" INDICATED FEW OR NO CLOUDS BELOW 12,000 FEET WITH NO
SIGNIFICANT WEATHER AND/OR OBSTRUCTIONS TO VISIBILITY.

BAJA CALIFORNIA

CITY           SKY/WX    TMP DP  RH WIND       PRES   REMARKS
LORETO         CLOUDY    68  57  68 NE6       29.97R
LA PAZ         CLOUDY    68  55  64 N7        29.97
MEXICALI       PTSUNNY   77  28  16 W8        29.99
S.J. DEL CABO  CLOUDY    66  57  72 W2        30.00R
TIJUANA        PTSUNNY   75  18  11 E13       30.00R

NORTHWESTERN MEXICO

CITY           SKY/WX    TMP DP  RH WIND       PRES   REMARKS
CULIACAN       CLOUDY    77  64  65 CALM      29.97
DURANGO        CLOUDY    52  37  58 W2        30.29
GUAYMAS        PTSUNNY   70  55  60 S12       29.93
HERMOSILLO     CLOUDY    82  36  18 S6        29.99
CD. JUAREZ     MOCLDY    57  32  38 S6        30.17
LOS MOCHIS     CLOUDY    72  54  53 NW6       29.97F
OBREGON        CLOUDY    72  50  46 W3        29.96

NORTHEASTERN MEXICO

CITY           SKY/WX    TMP DP  RH WIND       PRES   REMARKS
CHIHUAHUA      MOCLDY    59  19  21 NE12      30.23
MATAMOROS      MOCLDY    64  54  68 NW5       30.15
MONTERREY      CLOUDY    66  36  32 NE3       30.14R
NUEVO LAREDO   CLOUDY    68  41  37 N6        30.15
PIEDRAS NEGRAS MOCLDY    64  41  42 NW7       30.19S
REYNOSA        MOCLDY    64  39  39 NW3       30.12
SALTILLO       CLOUDY    59  41  51 NW12      30.28R
TORREON        CLOUDY    55  30  38 NE5       30.22R
CD. VICTORIA   MOCLDY    66  45  45 NW3       30.12

WESTERN MEXICO

CITY           SKY/WX    TMP DP  RH WIND       PRES   REMARKS
AGUASCALIENTES CLOUDY    66  34  30 SW5       30.23
COLIMA         CLOUDY    75  61  60 CALM      30.01
DEL BAJIO      MOCLDY    68  36  30 CALM      30.28R
GUADALAJARA    CLOUDY    63  54  72 W5        30.16
MANZANILLO     MOCLDY    79  72  78 N12       29.81F
MAZATLAN       CLOUDY    72  64  78 SE7       29.95R
P. VALLARTA    CLOUDY    79  68  69 NE5       29.89F
URUAPAN        CLOUDY    66  55  68 CALM      30.17R
ZACATECAS      CLOUDY    61  37  41 NE6       30.28

CENTRAL MEXICO

CITY           SKY/WX    TMP DP  RH WIND       PRES   REMARKS
CUERNAVACA     CLOUDY    75  48  38 CALM      30.07S
MEXICO CITY    CLOUDY    66  39  37 NW7       30.27R
MORELIA        CLOUDY    68  48  49 S5        30.19
POZA RICA      MOCLDY    64  48  55 NE7       30.13R
PUEBLA         CLOUDY    63  46  55 S9        30.27R
QUERETARO      CLOUDY    66  43  42 W6        30.26R
S. LUIS POTOSI CLOUDY    66  37  34 NE10      30.21R
TAMPICO        MOCLDY    63  50  63 E12       30.12R
TOLUCA         CLOUDY    61  41  48 E7        30.32R

SOUTHERN MEXICO

CITY           SKY/WX    TMP DP  RH WIND       PRES   REMARKS
ACAPULCO       MOCLDY    81  72  74 W8        29.84R
B. DE HUATULCO MOCLDY    79  73  83 CALM      29.91
OAXACA         CLOUDY    77  43  29 NW9       30.10R
P. ESCONDIDO   PTCLDY    82  72  69 CALM      30.03S
VERACRUZ       MOCLDY    66  57  72 E8        30.07R
ZIHUATANEJO    MOCLDY    82  73  74 W12       29.85F

YUCATAN PENINSULA

CITY           SKY/WX    TMP DP  RH WIND       PRES   REMARKS
CAMPECHE       CLEAR     72  63  73 N14       30.03R
CANCUN         PTCLDY    70  61  73 NW5       30.05R
CHETUMAL       PTCLDY    75  66  73 CALM      30.02R
CD. DEL CARMEN CLOUDY    72  61  68 N7        30.05
COZUMEL        MOCLDY    70  63  78 NE7       30.04R
MERIDA         CLEAR     72  55  56 N3        30.05R
MINATITLAN     CLOUDY    68  61  77 N12G23    30.04
TAPACHULA      CLEAR     82  72  69 CALM      29.86R
TUX. GUTIERREZ PTCLDY    68  57  68 NW21      29.99R
VILLAHERMOSA   CLOUDY    72  66  83 N5        30.06R

CENTRAL AMERICA

CITY           SKY/WX    TMP DP  RH WIND       PRES   REMARKS
BELIZE CITY    MOCLDY    75  64  69 NE5       30.02R

CARIBBEAN

CITY           SKY/WX    TMP DP  RH WIND       PRES   REMARKS
ARUBA          PTCLDY    81  73  78 E18       29.86R
CURACAO        PTCLDY    79  73  83 E14       29.89S
KINGSTON       MOCLDY    81  72  74 N5        29.92S
NASSAU         MOCLDY    72  68  88 N2        30.00R
SAN JUAN       PTCLDY    79  68  69 E5        30.00S
SANTO DOMINGO  PTCLDY    77  72  83 E5        29.97R
ST. KITTS      PTCLDY    77  70  78 NE10      30.00S
ST. MAARTEN    PTCLDY    79  70  73 E10       30.03R

$$



USA.gov is the U.S. government's official web portal to all federal, state and local government web resources and services.